Regional Weather Roundup
Issued by NWS Charleston, WV

Home | Current Version | Previous Version | Graphics & Text | Print | Product List | Glossary On
Versions: 1 2 3 4 5 6 7 8 9 10 11 12 13 14 15 16 17 18 19 20 21 22 23 24 25 26 27
000
ASUS41 KRLX 280810
RWRRLX
West Virginia Regional Weather Roundup
National Weather Service Charleston WV
400 AM EDT SAT MAY 28 2016

Note: "fair" indicates few or no clouds below 12,000 feet with no
significant weather and/or obstructions to visibility.

WVZ003-280900-
Northern Panhandle of West Virginia

CITY           SKY/WX    TMP DP  RH WIND       PRES   REMARKS
WHEELING         N/A     71  62  73 SE3       30.08S
$$

WVZ009-280900-
Northwest West Virginia

CITY           SKY/WX    TMP DP  RH WIND       PRES   REMARKS
PARKERSBURG      N/A     66  64  93 SE3       30.09S
$$

WVZ006-280900-
Western West Virginia

CITY           SKY/WX    TMP DP  RH WIND       PRES   REMARKS
HUNTINGTON       N/A     69  65  86 CALM      30.06S
$$

WVZ015-280900-
West Central West Virginia

CITY           SKY/WX    TMP DP  RH WIND       PRES   REMARKS
CHARLESTON       N/A     66  63  90 CALM      30.08R
$$

WVZ022-031-280900-
North Central West Virginia

CITY           SKY/WX    TMP DP  RH WIND       PRES   REMARKS
CLARKSBURG       N/A     63  62  97 CALM      30.10S
MORGANTOWN       N/A     67  60  78 CALM      30.11S
$$

WVZ025-035-042-045-280900-
Southern West Virginia

CITY           SKY/WX    TMP DP  RH WIND       PRES   REMARKS
BECKLEY          N/A     66  60  81 SE8       30.17S
LOGAN            N/A     70  64  83 CALM      30.12R
BLUEFIELD        N/A     65  58  78 S6        30.20R
LEWISBURG      FOG       57  57  98 CALM      30.18S VSB 3/4
$$

WVZ047-280900-
Northern Mountains of West Virginia

CITY           SKY/WX    TMP DP  RH WIND       PRES   REMARKS
ELKINS         MOCLDY    58  55  90 CALM      30.16S FOG
$$

WVZ052-280900-
Eastern Panhandle of West Virginia

CITY           SKY/WX    TMP DP  RH WIND       PRES   REMARKS
MARTINSBURG      N/A     66  64  93 S5        30.08S
PETERSBURG     FOG       65  65 100 CALM      30.12S VSB 1/4
$$




USA.gov is the U.S. government's official web portal to all federal, state and local government web resources and services.